Date String (YYYY-MM-DD hh:mm:ss) UTC,Instrument flags,absolute air pressure of the measurement (hPa),sample flow rate (lpm),inlet stack bypass flow (lpm),air temperature of the measurement (°C),ambient temperature measured by the external sensor (°C),aerosol sample conditioner tube jacket temperature (°C),OPC LED temperature (°C),internal box temperature (°C),relative humidity of the measurement (%),span deviation,mass concentration of particles derived from Lorenz-Mie calculation of OPC scattering (μg/m³),mass concentration of particles derived from Lorenz-Mie calculation of OPC scattering (μg/m³),mass concentration of particles derived from Lorenz-Mie calculation of OPC scattering (μg/m³)
DateTimeUTC,F1_M11,P_M11,Q1_M11,Q2_M11,T1_M11,T2_M11,T3_M11,T4_M11,T5_M11,U1_M11,ZSPAN_M11,X2_M11,X0_M11,X1_M11
2024-04-29 15:00:00,SystemResetWarning,0826.8,5.00,000.00,024.2,023.4,000.0,032.7,026.0,017.3,0000.0,0003.39,0008.64,0001.43
2024-04-29 15:01:00,SystemResetWarning,0826.8,5.01,000.00,024.2,023.4,000.0,032.7,026.0,017.8,0000.0,0003.41,0008.84,0001.41
2024-04-29 15:02:00,SystemResetWarning,0826.8,5.00,000.00,024.2,023.4,000.0,032.7,026.0,015.7,0000.0,0003.41,0008.91,0001.39
2024-04-29 15:03:00,SystemResetWarning,0826.8,5.00,000.00,024.2,023.4,000.0,032.7,026.0,014.9,0000.0,0003.44,0009.04,0001.39
2024-04-29 15:04:00,SystemResetWarning,0826.7,4.99,000.00,024.2,023.4,000.0,032.7,026.0,015.4,0000.0,0003.46,0009.64,0001.39
2024-04-29 15:05:00,SystemResetWarning,0826.8,4.99,000.00,024.2,023.4,000.0,032.7,026.0,015.8,0000.0,0003.47,0010.42,0001.42
2024-04-29 15:06:00,SystemResetWarning,0826.8,5.00,000.00,024.2,023.4,000.0,032.7,026.0,014.8,0000.0,0003.56,0010.97,0001.45
2024-04-29 15:07:00,SystemResetWarning,0826.7,5.01,000.00,024.2,023.4,000.0,032.7,026.0,015.1,0000.0,0003.61,0011.09,0001.45
2024-04-29 15:08:00,SystemResetWarning,0826.7,5.01,000.00,024.2,023.4,000.0,032.7,026.0,015.0,0000.0,0003.61,0011.44,0001.46
2024-04-29 15:09:00,SystemResetWarning,0826.7,5.00,000.00,024.2,023.4,000.0,032.7,026.0,014.4,0000.0,0003.62,0012.18,0001.46
2024-04-29 15:10:00,SystemResetWarning,0826.7,4.99,000.00,024.2,023.4,000.0,032.7,025.9,015.2,0000.0,0003.61,0012.03,0001.47
2024-04-29 15:11:00,SystemResetWarning,0826.7,5.00,000.00,024.2,023.4,000.0,032.7,026.0,015.2,0000.0,0003.63,0011.67,0001.47
2024-04-29 15:12:00,SystemResetWarning,0826.8,5.01,000.00,024.2,023.4,000.0,032.7,026.0,015.0,0000.0,0003.64,0011.51,0001.48
2024-04-29 15:13:00,SystemResetWarning,0826.7,5.01,000.00,024.2,023.4,000.0,032.7,026.0,014.4,0000.0,0003.65,0011.50,0001.50
2024-04-29 15:14:00,SystemResetWarning,0826.7,5.00,000.00,024.2,023.4,000.0,032.7,026.0,015.4,0000.0,0003.67,0011.70,0001.51
2024-04-29 15:15:00,SystemResetWarning,0826.7,5.00,000.00,024.2,023.5,000.0,032.7,026.0,015.6,0000.0,0003.65,0011.65,0001.52
2024-04-29 15:16:00,SystemResetWarning,0826.6,4.99,000.00,024.2,023.5,000.0,032.7,026.0,015.4,0000.0,0003.66,0011.81,0001.50
2024-04-29 15:17:00,SystemResetWarning,0826.6,5.00,000.00,024.2,023.5,000.0,032.7,026.0,014.8,0000.0,0003.65,0011.24,0001.48
2024-04-29 15:18:00,SystemResetWarning,0826.6,5.01,000.00,024.2,023.5,000.0,032.7,026.0,015.6,0000.0,0003.62,0011.13,0001.49
2024-04-29 15:19:00,SystemResetWarning,0826.6,5.01,000.00,024.2,023.5,000.0,032.7,026.0,015.0,0000.0,0003.62,0011.00,0001.48
2024-04-29 15:20:00,SystemResetWarning,0826.7,4.99,000.00,024.2,023.4,000.0,032.7,026.0,015.5,0000.0,0003.60,0010.19,0001.48
2024-04-29 15:21:00,SystemResetWarning,0826.6,4.99,000.00,024.2,023.4,000.0,032.7,026.0,015.7,0000.0,0003.62,0010.55,0001.48
2024-04-29 15:22:00,SystemResetWarning,0826.7,4.99,000.00,024.2,023.4,000.0,032.7,026.0,015.6,0000.0,0003.64,0010.95,0001.49
2024-04-29 15:23:00,SystemResetWarning,0826.7,5.01,000.00,024.2,023.4,000.0,032.7,026.0,015.2,0000.0,0003.61,0010.89,0001.49
2024-04-29 15:24:00,SystemResetWarning,0826.6,5.00,000.00,024.2,023.4,000.0,032.7,026.0,015.6,0000.0,0003.65,0011.06,0001.49
2024-04-29 15:25:00,SystemResetWarning,0826.7,5.00,000.00,024.2,023.4,000.0,032.7,026.0,016.0,0000.0,0003.65,0010.91,0001.49
2024-04-29 15:26:00,SystemResetWarning,0826.7,5.01,000.00,024.2,023.4,000.0,032.7,026.0,015.2,0000.0,0003.63,0010.49,0001.48
2024-04-29 15:27:00,SystemResetWarning,0826.8,5.00,000.00,024.2,023.4,000.0,032.7,026.0,015.7,0000.0,0003.59,0009.88,0001.46
2024-04-29 15:28:00,SystemResetWarning,0826.8,5.01,000.00,024.2,023.4,000.0,032.7,026.0,014.8,0000.0,0003.60,0010.27,0001.46
2024-04-29 15:29:00,SystemResetWarning,0826.8,4.99,000.00,024.2,023.4,000.0,032.7,026.0,015.2,0000.0,0003.62,0010.30,0001.46
2024-04-29 15:30:00,SystemResetWarning,0826.8,4.99,000.00,024.2,023.4,000.0,032.7,026.0,015.8,0000.0,0003.66,0010.39,0001.45
2024-04-29 15:31:00,SystemResetWarning,0826.8,4.99,000.00,024.2,023.4,000.0,032.7,026.0,015.3,0000.0,0003.70,0010.39,0001.44
2024-04-29 15:32:00,SystemResetWarning,0826.9,4.99,000.00,024.2,023.5,000.0,032.7,026.0,015.0,0000.0,0003.68,0010.07,0001.42
2024-04-29 15:33:00,SystemResetWarning,0826.9,5.01,000.00,024.2,023.5,000.0,032.7,026.0,015.4,0000.0,0003.69,0010.00,0001.41
2024-04-29 15:34:00,SystemResetWarning,0826.9,5.00,000.00,024.2,023.5,000.0,032.7,026.0,015.4,0000.0,0003.72,0010.40,0001.39
2024-04-29 15:35:00,SystemResetWarning,0826.9,5.00,000.00,024.2,023.5,000.0,032.7,026.0,015.6,0000.0,0003.74,0011.05,0001.39
2024-04-29 15:36:00,SystemResetWarning,0826.9,5.00,000.00,024.2,023.5,000.0,032.7,026.0,015.8,0000.0,0003.76,0011.43,0001.39
2024-04-29 15:37:00,SystemResetWarning,0826.9,4.99,000.00,024.2,023.5,000.0,032.7,026.0,015.9,0000.0,0003.76,0011.37,0001.41
2024-04-29 15:38:00,SystemResetWarning,0826.9,4.99,000.00,024.2,023.5,000.0,032.7,026.0,016.6,0000.0,0003.73,0011.24,0001.40
2024-04-29 15:39:00,SystemResetWarning,0826.9,4.99,000.00,024.3,023.5,000.0,032.7,026.0,016.6,0000.0,0003.73,0010.85,0001.41
2024-04-29 15:40:00,SystemResetWarning,0826.9,5.00,000.00,024.3,023.6,000.0,032.7,026.0,015.2,0000.0,0003.73,0010.99,0001.40
2024-04-29 15:41:00,SystemResetWarning,0827.0,5.00,000.00,024.3,023.6,000.0,032.7,026.0,015.3,0000.0,0003.72,0011.09,0001.40
2024-04-29 15:42:00,SystemResetWarning,0826.9,5.01,000.00,024.3,023.6,000.0,032.7,026.0,014.8,0000.0,0003.68,0011.14,0001.41
2024-04-29 15:43:00,SystemResetWarning,0826.9,5.01,000.00,024.3,023.6,000.0,032.7,026.0,014.9,0000.0,0003.67,0011.19,0001.41
2024-04-29 15:44:00,SystemResetWarning,0826.9,5.00,000.00,024.3,023.6,000.0,032.7,026.0,014.9,0000.0,0003.66,0011.88,0001.41
2024-04-29 15:45:00,SystemResetWarning,0826.8,5.00,000.00,024.3,023.6,000.0,032.7,026.0,015.0,0000.0,0003.65,0011.82,0001.43
2024-04-29 15:46:00,SystemResetWarning,0826.9,4.99,000.00,024.3,023.6,000.0,032.7,026.1,014.5,0000.0,0003.66,0011.26,0001.44
2024-04-29 15:47:00,SystemResetWarning,0826.9,5.00,000.00,024.3,023.6,000.0,032.7,026.1,014.6,0000.0,0003.64,0010.79,0001.44
2024-04-29 15:48:00,SystemResetWarning,0826.8,5.00,000.00,024.3,023.6,000.0,032.7,026.1,013.7,0000.0,0003.65,0010.83,0001.44
2024-04-29 15:49:00,SystemResetWarning,0826.9,5.00,000.00,024.3,023.6,000.0,032.7,026.0,014.5,0000.0,0003.75,0011.06,0001.48
2024-04-29 15:50:00,SystemResetWarning,0826.9,5.01,000.00,024.3,023.6,000.0,032.7,026.1,014.8,0000.0,0003.79,0011.38,0001.49
2024-04-29 15:51:00,SystemResetWarning,0826.9,5.01,000.00,024.3,023.6,000.0,032.7,026.1,014.0,0000.0,0003.78,0011.65,0001.49
2024-04-29 15:52:00,SystemResetWarning,0826.8,5.00,000.00,024.3,023.6,000.0,032.7,026.1,014.4,0000.0,0003.82,0011.91,0001.52
2024-04-29 15:53:00,SystemResetWarning,0826.9,4.99,000.00,024.3,023.6,000.0,032.7,026.1,015.2,0000.0,0003.85,0012.39,0001.54
2024-04-29 15:54:00,SystemResetWarning,0826.9,5.00,000.00,024.3,023.6,000.0,032.7,026.1,014.7,0000.0,0003.90,0013.00,0001.54
2024-04-29 15:55:00,SystemResetWarning,0826.9,5.00,000.00,024.3,023.6,000.0,032.7,026.1,014.7,0000.0,0003.94,0012.01,0001.53
2024-04-29 15:56:00,SystemResetWarning,0827.0,5.01,000.00,024.3,023.6,000.0,032.7,026.1,015.2,0000.0,0003.99,0011.94,0001.54
2024-04-29 15:57:00,SystemResetWarning,0826.9,5.01,000.00,024.3,023.6,000.0,032.7,026.1,015.3,0000.0,0003.96,0012.21,0001.53
2024-04-29 15:58:00,SystemResetWarning,0826.9,5.00,000.00,024.3,023.6,000.0,032.7,026.1,014.6,0000.0,0003.95,0012.35,0001.53
2024-04-29 15:59:00,SystemResetWarning,0826.9,5.00,000.00,024.3,023.6,000.0,032.7,026.1,013.9,0000.0,0003.97,0012.46,0001.55
